Date String (YYYY-MM-DD hh:mm:ss) UTC,Instrument flags,Ambient pressure (hPa),Sample flow (lpm),Bypass flow (lpm),Sample temperature (°C),Ambient temperature (°C),ASC tube jacket temperature (°C),LED temperature (°C),Box temperature (°C),Sample RH (%),Span deviation,Mass concentration (μg/m³),Mass concentration (μg/m³),Mass concentration (μg/m³)
DateTimeUTC,F1_M11,P_M11,Q1_M11,Q2_M11,T1_M11,T2_M11,T3_M11,T4_M11,T5_M11,U1_M11,ZSPAN_M11,X0_M11,X2_M11,X1_M11
2022-01-07 08:00:00,,0815.6,4.99,0.00,21.7,20.9,00.0,30.9,23.1,11.7,0002.0,0011.61,0006.66,0006.06
2022-01-07 08:01:00,,0815.8,5.00,0.00,21.6,20.9,00.0,30.8,23.1,11.7,0002.4,0011.62,0006.77,0006.15
2022-01-07 08:02:00,,0815.9,5.01,0.00,21.6,21.0,00.0,30.8,23.2,11.8,0002.6,0011.67,0006.81,0006.18
2022-01-07 08:03:00,,0815.7,4.99,0.00,21.7,21.9,00.0,30.8,23.4,11.9,0002.7,0011.39,0006.79,0006.15
2022-01-07 08:04:00,,0815.9,5.01,0.00,21.9,22.9,00.0,30.9,23.8,11.7,0003.0,0011.34,0006.81,0006.14
2022-01-07 08:05:00,,0815.9,5.00,0.00,22.0,23.2,00.0,30.9,23.9,11.3,0002.7,0011.34,0006.86,0006.18
2022-01-07 08:06:00,,0815.8,4.99,0.00,22.0,22.8,00.0,30.9,23.8,10.5,0002.5,0011.62,0006.97,0006.26
2022-01-07 08:07:00,,0816.0,5.01,0.00,22.0,22.3,00.0,31.0,23.7,10.5,0002.3,0011.98,0007.08,0006.34
2022-01-07 08:08:00,,0816.2,5.00,0.00,22.0,22.0,00.0,30.9,23.6,11.0,0001.9,0011.49,0007.07,0006.34
2022-01-07 08:09:00,,0816.2,5.00,0.00,21.9,21.8,00.0,30.9,23.5,10.5,0001.5,0011.37,0007.14,0006.43
2022-01-07 08:10:00,,0816.1,5.00,0.00,21.9,21.6,00.0,30.9,23.5,09.1,0001.6,0011.65,0007.40,0006.70
2022-01-07 08:11:00,,0816.1,5.00,0.00,21.9,21.4,00.0,30.9,23.4,08.5,0001.5,0012.06,0007.73,0007.00
2022-01-07 08:12:00,,0816.1,5.01,0.00,21.8,21.3,00.0,30.9,23.4,09.0,0001.1,0012.45,0007.98,0007.24
2022-01-07 08:13:00,,0815.9,4.99,0.00,21.8,21.2,00.0,30.9,23.4,09.7,0001.1,0012.68,0008.17,0007.43
2022-01-07 08:14:00,,0815.7,4.99,0.00,21.8,21.1,00.0,30.9,23.3,10.6,0001.0,0012.81,0008.28,0007.55
2022-01-07 08:15:00,,0815.7,5.01,0.00,21.7,21.0,00.0,30.9,23.2,11.0,0001.1,0012.80,0008.30,0007.60
2022-01-07 08:16:00,,0815.8,5.00,0.00,21.7,20.9,00.0,30.8,23.1,11.5,0001.7,0012.75,0008.24,0007.56
2022-01-07 08:17:00,,0815.9,5.00,0.00,21.7,21.4,00.0,30.8,23.3,12.0,0001.8,0012.37,0008.04,0007.38
2022-01-07 08:18:00,,0815.8,4.99,0.00,21.8,22.2,00.0,30.9,23.6,12.0,0001.9,0012.00,0007.86,0007.23
2022-01-07 08:19:00,,0815.9,5.01,0.00,22.0,22.9,00.0,30.9,23.9,12.1,0002.4,0012.02,0007.73,0007.10
2022-01-07 08:20:00,,0815.8,5.00,0.00,22.1,22.8,00.0,31.0,23.9,12.2,0002.8,0011.78,0007.52,0006.91
2022-01-07 08:21:00,,0815.8,4.99,0.00,22.1,22.5,00.0,31.0,23.9,12.4,0002.5,0011.34,0007.13,0006.51
2022-01-07 08:22:00,,0815.8,5.00,0.00,22.1,22.2,00.0,31.0,23.8,12.6,0002.4,0010.71,0006.61,0006.04
2022-01-07 08:23:00,,0815.8,4.99,0.00,22.0,21.9,00.0,31.0,23.7,12.6,0002.8,0010.17,0006.21,0005.63
2022-01-07 08:24:00,,0815.9,5.01,0.00,22.0,21.7,00.0,31.0,23.7,12.7,0002.8,0009.82,0005.89,0005.32
2022-01-07 08:25:00,,0816.0,5.00,0.00,22.0,21.5,00.0,31.0,23.6,12.5,0003.1,0009.72,0005.69,0005.12
2022-01-07 08:26:00,,0816.0,5.00,0.00,21.9,21.5,00.0,31.0,23.6,12.2,0002.4,0009.78,0005.61,0005.01
2022-01-07 08:27:00,,0816.1,5.00,0.00,21.9,21.4,00.0,31.0,23.6,12.2,0002.2,0009.74,0005.55,0004.95
2022-01-07 08:28:00,,0816.1,5.01,0.00,21.9,21.3,00.0,31.0,23.5,11.3,0002.8,0009.82,0005.62,0005.02
2022-01-07 08:29:00,,0816.1,5.00,0.00,21.9,21.2,00.0,30.9,23.5,11.7,0003.3,0009.79,0005.66,0005.06
2022-01-07 08:30:00,,0816.1,5.00,0.00,21.9,21.2,00.0,30.9,23.5,12.0,0003.4,0009.62,0005.66,0005.07
2022-01-07 08:31:00,,0816.0,4.98,0.00,21.8,21.2,00.0,30.9,23.5,12.1,0003.4,0009.62,0005.69,0005.10
2022-01-07 08:32:00,,0816.0,4.99,0.00,21.8,21.2,00.0,30.9,23.5,11.8,0003.3,0009.57,0005.72,0005.16
2022-01-07 08:33:00,,0816.2,5.01,0.00,21.9,21.7,00.0,30.9,23.6,11.6,0003.3,0009.66,0005.84,0005.28
2022-01-07 08:34:00,,0816.4,4.99,0.00,22.0,22.6,00.0,31.0,23.9,11.3,0002.9,0009.77,0005.94,0005.42
2022-01-07 08:35:00,,0816.4,4.99,0.00,22.2,23.2,00.0,31.0,24.1,10.1,0002.6,0010.47,0006.17,0005.65
2022-01-07 08:36:00,,0816.3,5.01,0.00,22.3,23.0,00.0,31.0,24.2,09.3,0002.5,0010.78,0006.53,0006.03
2022-01-07 08:37:00,,0816.2,4.99,0.00,22.3,22.7,00.0,31.1,24.1,10.0,0002.6,0010.84,0006.71,0006.22
2022-01-07 08:38:00,,0816.0,5.00,0.00,22.3,22.4,00.0,31.1,24.0,10.3,0002.3,0010.88,0006.83,0006.35
2022-01-07 08:39:00,,0815.9,5.00,0.00,22.2,22.2,00.0,31.1,23.9,09.9,0001.6,0011.10,0007.01,0006.53
2022-01-07 08:40:00,,0816.0,4.99,0.00,22.2,22.0,00.0,31.1,23.9,10.4,0001.2,0011.20,0007.11,0006.62
2022-01-07 08:41:00,,0816.0,5.02,0.00,22.2,21.8,00.0,31.1,23.8,10.6,0001.0,0011.51,0007.29,0006.76
2022-01-07 08:42:00,,0815.9,4.99,0.00,22.1,21.7,00.0,31.1,23.8,09.9,0001.0,0011.76,0007.48,0006.96
2022-01-07 08:43:00,,0815.9,5.00,0.00,22.1,21.5,00.0,31.1,23.7,09.1,0001.2,0012.19,0007.81,0007.27
2022-01-07 08:44:00,,0815.8,5.00,0.00,22.0,21.4,00.0,31.1,23.5,09.7,0000.9,0012.44,0008.00,0007.45
2022-01-07 08:45:00,,0815.7,5.00,0.00,22.0,21.3,00.0,31.1,23.5,11.2,0001.1,0012.40,0007.97,0007.41
2022-01-07 08:46:00,,0815.8,4.99,0.00,21.9,21.2,00.0,31.0,23.5,11.9,0001.4,0011.61,0007.71,0007.17
2022-01-07 08:47:00,,0816.0,5.01,0.00,21.9,21.1,00.0,31.0,23.5,12.3,0001.5,0011.19,0007.37,0006.82
2022-01-07 08:48:00,,0816.1,5.00,0.00,21.9,21.2,00.0,31.0,23.4,12.1,0001.5,0010.94,0007.16,0006.62
2022-01-07 08:49:00,,0816.1,4.99,0.00,22.0,22.0,00.0,31.1,23.7,11.6,0001.6,0010.85,0007.09,0006.55
2022-01-07 08:50:00,,0816.1,5.01,0.00,22.1,22.7,00.0,31.1,23.9,11.6,0002.0,0010.59,0006.89,0006.36
2022-01-07 08:51:00,,0816.0,4.99,0.00,22.2,23.0,00.0,31.1,24.1,12.0,0002.0,0010.24,0006.64,0006.15
2022-01-07 08:52:00,,0815.9,5.00,0.00,22.2,22.7,00.0,31.1,24.1,12.2,0002.3,0009.91,0006.40,0005.92
2022-01-07 08:53:00,,0815.9,5.00,0.00,22.2,22.4,00.0,31.1,24.0,10.9,0002.4,0009.88,0006.36,0005.87
2022-01-07 08:54:00,,0816.1,5.01,0.00,22.2,22.2,00.0,31.1,23.9,10.7,0002.4,0009.72,0006.16,0005.65
2022-01-07 08:55:00,,0816.1,4.99,0.00,22.2,22.0,00.0,31.2,23.9,10.7,0002.2,0009.58,0006.04,0005.51
2022-01-07 08:56:00,,0816.0,5.00,0.00,22.1,21.8,00.0,31.1,23.7,09.7,0002.8,0010.01,0006.22,0005.70
2022-01-07 08:57:00,,0816.0,5.02,0.00,22.1,21.6,00.0,31.1,23.7,09.6,0002.2,0010.67,0006.56,0006.02
2022-01-07 08:58:00,,0816.0,4.99,0.00,22.1,21.5,00.0,31.1,23.7,10.5,0002.1,0011.00,0006.73,0006.18
2022-01-07 08:59:00,,0816.0,5.01,0.00,22.0,21.4,00.0,31.1,23.7,11.0,0002.1,0011.19,0006.81,0006.25
